EW3027 Weather Reports


Display with metric or nautical units.
time (UTC)temp
F
wind
direction
speed
MPH
gust
MPH
rain 1hr
in
rain 24hr
in
rain mn
in
humidity
%
barometer
mb
20260505050338 57 0.0 0.0 0.00 0.00 0.00 81 1013.5
20260505041318 57 0.0 0.0 0.00 0.00 0.00 81 1013.1
20260505040338 57 0.0 0.0 0.00 0.00 0.00 81 1012.9
20260505034317 57 0.0 0.0 0.00 0.00 0.00 80 1012.5
20260505033335 58 0.0 0.0 0.00 0.00 0.00 79 1012.6
20260505032917 58 0.0 0.0 0.00 0.00 0.00 79 1012.5
20260505031917 58 0.0 0.0 0.00 0.00 0.00 79 1012.3
20260505030917 59 0.0 0.0 0.00 0.00 0.00 77 1012.1
20260505025937 60 0.0 0.0 0.00 0.00 0.00 76 1012.0
20260505024917 60 0.0 0.0 0.00 0.00 0.00 75 1011.7
20260505023917 61 0.0 0.0 0.00 0.00 0.00 73 1011.6
20260505022917 62 0.0 0.0 0.00 0.00 0.00 72 1011.6
20260505021917 63 0.0 0.0 0.00 0.00 0.00 70 1011.6
20260505020917 64 0.0 0.0 0.00 0.00 0.00 70 1011.5
20260505015916 64 0.0 0.0 0.00 0.00 0.00 69 1011.4
20260505014916 65 0.0 0.0 0.00 0.00 0.00 68 1011.6
20260505013916 66 0.0 0.0 0.00 0.00 0.00 67 1011.4
20260505012916 66 0.0 0.0 0.00 0.00 0.00 66 1011.5
20260505011916 68 0.0 0.0 0.00 0.00 0.00 63 1011.6
20260505010917 67 0.0 0.0 0.00 0.00 0.00 65 1011.5
20260505005917 67 0.0 0.0 0.00 0.00 0.00 65 1011.5
20260505004916 68 0.0 0.0 0.00 0.00 0.00 65 1011.5
20260505003917 68 0.0 0.0 0.00 0.00 0.00 65 1011.6
20260505002916 68 0.0 0.0 0.00 0.00 0.00 65 1011.4
20260505001937 68 0.0 0.0 0.00 0.00 0.00 64 1011.4
20260505000916 68 0.0 0.0 0.00 0.00 0.00 65 1011.5
20260504235937 69 0.0 0.0 0.00 0.00 0.00 63 1011.5
20260504234917 69 0.0 0.0 0.00 0.00 0.00 62 1011.6
20260504233917 69 0.0 0.0 0.00 0.00 0.00 63 1011.5
20260504232916 68 0.0 0.0 0.00 0.00 0.00 63 1011.5
20260504231956 70 0.0 0.0 0.00 0.00 0.00 62 1011.7
20260504230936 69 0.0 0.0 0.00 0.00 0.00 62 1011.8
20260504225917 69 0.0 0.0 0.00 0.00 0.00 62 1011.9
20260504224917 69 0.0 0.0 0.00 0.00 0.00 62 1012.0
20260504223916 69 0.0 0.0 0.00 0.00 0.00 63 1012.2
20260504222916 68 0.0 0.0 0.00 0.00 0.00 64 1012.3
20260504221916 68 0.0 0.0 0.00 0.00 0.00 64 1012.4
20260504220916 67 0.0 0.0 0.00 0.00 0.00 65 1012.5
20260504215937 66 0.0 0.0 0.00 0.00 0.00 67 1012.7
20260504214917 65 0.0 0.0 0.00 0.00 0.00 68 1012.6
20260504213916 65 0.0 0.0 0.00 0.00 0.00 69 1012.9
20260504212917 64 0.0 0.0 0.00 0.00 0.00 69 1012.8
20260504211916 64 0.0 0.0 0.00 0.00 0.00 69 1012.9
20260504210936 63 0.0 0.0 0.00 0.00 0.00 71 1013.0
20260504205916 63 0.0 0.0 0.00 0.00 0.00 72 1013.1
20260504204916 62 0.0 1.0 0.00 0.00 0.00 71 1013.2
20260504203916 62 0.0 1.0 0.00 0.00 0.00 72 1013.1
20260504202916 61 0.0 1.0 0.00 0.00 0.00 74 1013.2
20260504201916 61 0.0 1.0 0.00 0.00 0.00 74 1013.1
20260504200936 61 338 1.0 1.0 0.00 0.00 0.00 75 1013.2
20260504195917 61 270 1.0 2.0 0.00 0.00 0.00 75 1013.3
20260504194916 61 0 1.0 3.0 0.00 0.00 0.00 75 1013.3
20260504193916 61 0.0 0.0 0.00 0.00 0.00 74 1013.3
20260504192916 61 270 1.0 1.0 0.00 0.00 0.00 76 1013.3
20260504191936 61 0.0 0.0 0.00 0.00 0.00 75 1013.4
20260504190916 61 0.0 0.0 0.00 0.00 0.00 76 1013.4
20260504185916 60 0.0 1.0 0.00 0.00 0.00 76 1013.6
20260504184916 59 0.0 0.0 0.00 0.00 0.00 77 1013.7
20260504183936 59 315 1.0 3.0 0.00 0.00 0.00 78 1013.7
20260504182916 59 0.0 0.0 0.00 0.00 0.00 79 1013.8
20260504181916 58 0.0 0.0 0.00 0.00 0.00 79 1013.7
20260504180936 58 0.0 1.0 0.00 0.00 0.00 80 1013.8
20260504175916 58 0.0 0.0 0.00 0.00 0.00 80 1013.9
20260504174916 58 0.0 1.0 0.00 0.00 0.00 80 1013.8
20260504173916 57 0.0 0.0 0.00 0.00 0.00 80 1013.8
20260504172916 57 0.0 0.0 0.00 0.00 0.00 80 1014.0
20260504171916 56 0.0 0.0 0.00 0.00 0.00 82 1014.0
20260504170916 57 0.0 0.0 0.00 0.00 0.00 82 1014.0
20260504150918 54 0.0 0.0 0.00 0.00 0.00 85 1013.6
20260504140918 54 0.0 0.0 0.00 0.00 0.00 86 1013.3
20260504081917 56 0.0 0.0 0.00 0.00 0.00 81 1011.1
20260504080917 57 0.0 0.0 0.00 0.00 0.00 80 1011.1